Location: Unspecified
(44.5899°N, 128.9834°E)
Time: 13:11:45
(UTC+08:00)

Resurs 01 Rocket - Visible Passes

Search period start: 28 May 2018 00:00
Search period end: 07 June 2018 00:00
Orbit: 634 x 645 km, 98.1° (Epoch: 27 May)

Date Brightness Start Highest point End Pass type
(mag) Time Alt. Az. Time Alt. Az. Time Alt. Az.
28 May 3.2 19:57:16 10° SSW 20:01:15 34° W 20:05:17 10° NNW visible
29 May 4.0 20:21:30 10° SW 20:24:44 20° W 20:28:00 10° NW visible
30 May 4.4 20:46:48 10° WSW 20:48:18 11° W 20:49:47 10° WNW visible
31 May 2.1 19:30:15 10° S 19:34:37 65° WSW 19:39:01 10° NNW visible
01 Jun 3.0 19:53:56 10° SSW 19:58:00 36° W 20:02:06 10° NNW visible
02 Jun 3.9 20:18:04 10° SW 20:21:28 22° W 20:24:52 10° NW visible
03 Jun 4.3 20:43:05 10° WSW 20:45:01 13° W 20:46:56 10° WNW visible
05 Jun 2.9 19:50:36 10° SSW 19:54:44 40° W 19:58:54 10° NNW visible
06 Jun 3.8 20:14:39 10° SSW 20:18:11 23° W 20:21:44 10° NW visible
